Regional Weather Roundup
Issued by NWS

Home | Current Version | Previous Version | Text Only | Print | Product List | Glossary Off
Versions: 1 2 3 4 5 6 7 8 9 10 11 12 13 14 15 16 17 18 19 20 21 22 23 24 25 26 27 28 29 30 31 32 33 34 35 36 37 38 39 40 41 42 43 44 45 46 47 48 49 50

000
ASUS45 KCYS 150310
RWRWY

WYOMING REGIONAL WEATHER ROUNDUP
NATIONAL WEATHER SERVICE CHEYENNE WY
900 PM MDT SUN SEP 14 2014

NOTE:  "FAIR" INDICATES FEW OR NO CLOUDS BELOW 12,000 FEET
WITH NO SIGNIFICANT WEATHER AND/OR OBSTRUCTIONS TO VISIBILITY.

WYZ001-150400-
YELLOWSTONE NATIONAL PARK

CITY           SKY/WX    TMP DP  RH WIND       PRES   REMARKS
LK YELLOWSTONE   N/A     42  29  59 NW3       30.28R
W YELLOWSTONE  NOT AVBL

$$
WYZ002>013-054>058-071-098>099-150400-
NORTHERN WYOMING

CITY           SKY/WX    TMP DP  RH WIND       PRES   REMARKS
JACKSON        CLEAR     57  23  26 CALM      30.18R
CODY           CLEAR     52  39  62 NW6       30.20R
GREYBULL       CLEAR     60  35  39 NW13      30.12R
WORLAND        CLEAR     56  41  57 NW7       30.13R
SHERIDAN       CLEAR     50  40  68 W7        30.18R
BUFFALO        CLEAR     50  39  66 N9        30.20R
GILLETTE       CLEAR     44  39  82 CALM      30.17R
HULETT         FAIR      46  37  71 MISG      30.18
NEWCASTLE      FAIR      46  39  76 SE6       30.17

$$
WYZ014>020-022>026-101>103-150400-
CENTRAL WYOMING

CITY           SKY/WX    TMP DP  RH WIND       PRES   REMARKS
BIG PINEY      CLEAR     53  24  32 NW13      30.23R
PINEDALE       CLEAR     45  27  49 NW6       30.24R
DUBOIS         FAIR      54  18  24 NW5       30.22R
LANDER         CLEAR     57  34  41 W6        30.17R
RIVERTON       CLEAR     55  33  43 E6        30.16R
CASPER         CLEAR     54  38  54 NE9       30.17R
DOUGLAS        CLEAR     47  42  83 E7        30.18R

$$
WYZ021-027>030-104>119-150400-
SOUTHERN WYOMING

CITY           SKY/WX    TMP DP  RH WIND       PRES   REMARKS
EVANSTON       PTCLDY    64  29  26 W8        30.23R
KEMMERER       PTCLDY    59  28  31 NW5       30.25R
FORT BRIDGER   FAIR      63  29  27 W5        30.25R
ROCK SPRINGS   PTCLDY    66  25  21 NW10      30.19R
DIXON          FAIR      54  41  62 NE3       30.21R
RAWLINS        PTCLDY    60  31  33 N13       30.18R
SARATOGA       FAIR      61  34  36 SW12      30.21R
LARAMIE        PTCLDY    55  34  45 SW10      30.19R
CHEYENNE       PTCLDY    53  46  77 N9        30.17R
TORRINGTON     CLEAR     52  44  74 NE18      30.10R
PINE BLUFFS    FAIR      52  46  82 N5        30.12R

$$


USA.gov is the U.S. government's official web portal to all federal, state and local government web resources and services.